Waarnemingen

Advertentie
Mijn weer
Plymouth, Groot Brittannië (3827): temperatuur & dauwpunt: 20.09.2018 08:00:00 - 26.09.2018 08:00:00 (BST)Plymouth, Groot Brittannië (3827): windsnelheid & windstoten: 20.09.2018 08:00:00 - 26.09.2018 08:00:00 (BST)Plymouth, Groot Brittannië (3827): windrichting: 20.09.2018 08:00:00 - 26.09.2018 08:00:00 (BST)Plymouth, Groot Brittannië (3827): luchtdruk: 20.09.2018 08:00:00 - 26.09.2018 08:00:00 (BST)Plymouth, Groot Brittannië (3827): zicht: 20.09.2018 08:00:00 - 26.09.2018 08:00:00 (BST)Plymouth, Groot Brittannië (3827): neerslag: 20.09.2018 08:00:00 - 26.09.2018 08:00:00 (BST)
Datum & Tijd tt [°C] td [°C] ff [km/u] ff [kn] fx [km/u] fx [kn] dd ppp [hPa] vv [km] rr [mm]
26.09.2018 08:00:00 5,6 5,2 8 4 - - NNO 1033,6 8 0,2
26.09.2018 07:00:00 5,6 5,1 8 4 - - NO 1033,5 10 0,0
26.09.2018 06:00:00 5,9 5,4 8 4 - - ONO 1033,8 15 0,0
26.09.2018 05:00:00 6,3 5,7 8 4 - - NO 1033,9 14 0,0
26.09.2018 04:00:00 6,9 6,1 9 5 - - ONO 1034,1 15 0,0
26.09.2018 03:00:00 6,6 5,7 8 4 - - NO 1034,4 15 0,0
26.09.2018 02:00:00 7,7 6,3 11 6 - - O 1034,6 23 0,0
26.09.2018 01:00:00 8,0 6,3 9 5 - - O 1034,9 18 0,0
26.09.2018 00:00:00 8,2 6,8 9 5 - - O 1035,3 19 0,0
25.09.2018 23:00:00 9,1 7,1 9 5 - - O 1035,4 20 0,0
25.09.2018 22:00:00 9,4 7,3 8 4 - - O 1035,4 27 0,0
25.09.2018 21:00:00 10,1 7,4 8 4 - - O 1035,5 18 0,0
25.09.2018 20:00:00 10,7 7,2 5 3 - - OZO 1035,4 35 0,0
25.09.2018 19:00:00 12,4 7,5 8 4 - - ZO 1035,3 30 0,0
25.09.2018 18:00:00 14,1 7,6 13 7 - - ZZO 1035,5 20 0,0
25.09.2018 17:00:00 15,5 8,1 16 9 - - Z 1035,7 21 0,0
25.09.2018 16:00:00 16,4 8,8 15 8 - - ZZO 1036,0 29 0,0
25.09.2018 15:00:00 16,7 8,6 15 8 - - ZZO 1036,5 40 0,0
25.09.2018 14:00:00 17,5 8,4 13 7 - - Z 1037,1 17 0,0
25.09.2018 13:00:00 17,1 8,3 13 7 - - Z 1037,6 19 0,0
25.09.2018 12:00:00 16,9 8,0 16 9 - - Z 1037,6 20 0,0
25.09.2018 11:00:00 16,0 8,1 8 4 - - OZO 1037,7 26 0,0
25.09.2018 10:00:00 12,9 8,5 9 5 - - O 1037,8 35 0,0
25.09.2018 09:00:00 7,6 6,2 8 4 - - NNO 1038,0 13 0,0
25.09.2018 08:00:00 5,7 4,6 9 5 - - NO 1037,9 17 0,0
25.09.2018 07:00:00 5,3 4,7 8 4 - - ONO 1038,0 21 0,0
25.09.2018 06:00:00 5,2 4,3 8 4 - - NO 1037,7 22 0,0
25.09.2018 05:00:00 5,0 3,9 8 4 - - NO 1037,9 21 0,0
25.09.2018 04:00:00 4,8 3,4 4 2 - - NO 1038,4 16 0,0
25.09.2018 03:00:00 5,6 4,2 5 3 - - ONO 1038,6 14 0,0
25.09.2018 02:00:00 6,1 4,1 9 5 - - ONO 1038,7 20 0,0
25.09.2018 01:00:00 6,3 4,2 5 3 - - NO 1039,1 24 0,0
25.09.2018 00:00:00 7,0 4,4 9 5 - - O 1039,3 14 0,0
24.09.2018 23:00:00 7,6 4,5 9 5 - - O 1039,4 21 0,0
24.09.2018 22:00:00 8,6 5,9 8 4 - - ONO 1039,1 35 0,0
24.09.2018 21:00:00 9,9 6,9 8 4 - - O 1038,9 27 0,0
24.09.2018 20:00:00 10,6 7,1 5 3 - - O 1038,7 15 0,0
24.09.2018 19:00:00 12,7 7,2 13 7 - - ZZW 1038,5 13 0,0
24.09.2018 18:00:00 14,1 7,0 13 7 - - ZW 1038,5 19 0,0
24.09.2018 17:00:00 13,4 6,6 15 8 - - ZZW 1038,6 30 0,0
24.09.2018 16:00:00 15,8 7,1 16 9 - - ZZW 1038,7 30 0,0
24.09.2018 15:00:00 16,0 7,7 13 7 - - ZZW 1039,2 11 0,0
24.09.2018 14:00:00 16,1 7,8 11 6 - - ZZW 1039,3 23 0,0
24.09.2018 13:00:00 16,1 8,7 5 3 - - ZZW 1039,6 15 0,0
24.09.2018 12:00:00 14,1 7,3 8 4 - - W 1040,0 35 0,0
24.09.2018 11:00:00 14,1 9,7 5 3 - - WZW 1039,8 13 0,0
24.09.2018 10:00:00 11,5 7,7 4 2 - - NNO 1039,4 26 0,0
24.09.2018 09:00:00 8,2 7,4 4 2 - - NW 1039,2 17 0,0
24.09.2018 08:00:00 5,2 4,8 0 0 - - N 1038,6 16 0,0
24.09.2018 07:00:00 5,4 4,8 5 3 - - WNW 1037,8 18 0,0
24.09.2018 06:00:00 5,8 5,0 5 3 - - NW 1037,3 21 0,0
24.09.2018 05:00:00 6,4 5,5 9 5 - - ONO 1037,1 22 0,0
24.09.2018 04:00:00 5,8 4,7 5 3 - - N 1037,0 19 0,0
24.09.2018 03:00:00 6,5 5,1 5 3 - - NO 1036,7 24 0,0
24.09.2018 02:00:00 6,8 4,8 8 4 - - NW 1036,2 14 0,0
24.09.2018 01:00:00 7,6 5,1 8 4 - - NO 1035,2 25 0,0
24.09.2018 00:00:00 8,3 4,8 8 4 - - NNO 1034,8 30 0,0
23.09.2018 23:00:00 8,5 4,6 11 6 - - NNW 1033,7 16 0,0
23.09.2018 22:00:00 8,7 4,2 11 6 - - N 1032,8 26 0,0
23.09.2018 21:00:00 10,0 4,4 21 11 - - N 1031,4 22 0,0
23.09.2018 20:00:00 10,8 4,1 18 10 - - NNW 1030,3 24 0,0
23.09.2018 19:00:00 11,7 3,8 29 16 - - N 1028,9 21 0,0
23.09.2018 18:00:00 12,6 3,8 28 15 57 31 NNW 1027,8 22 0,0
23.09.2018 17:00:00 13,5 4,5 31 17 54 29 NNW 1026,5 18 0,0
23.09.2018 16:00:00 14,5 3,5 29 16 48 26 N 1025,6 14 0,0
23.09.2018 15:00:00 13,8 6,1 29 16 48 26 NNW 1025,0 20 0,0
23.09.2018 14:00:00 14,5 8,8 24 13 48 26 NNW 1023,8 50 0,0
23.09.2018 13:00:00 12,9 7,4 24 13 46 25 N 1022,2 11 0,0
23.09.2018 12:00:00 12,0 9,1 28 15 - - N 1021,0 23 0,2
23.09.2018 11:00:00 10,6 9,3 24 13 - - N 1020,2 3,5 0,0
23.09.2018 10:00:00 11,3 10,2 18 10 - - N 1017,7 30 0,2
23.09.2018 09:00:00 10,9 10,5 15 8 - - NNO 1015,0 8 1,0
23.09.2018 08:00:00 10,9 10,6 16 9 - - N 1014,7 5 3,8
23.09.2018 07:00:00 11,3 11,1 9 5 - - NNO 1013,0 1,9 1,0
23.09.2018 06:00:00 11,6 11,2 8 4 - - NO 1013,1 1,9 0,2
23.09.2018 05:00:00 11,8 11,4 9 5 - - ONO 1012,8 30 0,0
23.09.2018 04:00:00 11,7 11,4 8 4 - - ONO 1012,7 28 0,0
23.09.2018 03:00:00 11,7 11,3 9 5 - - O 1013,1 8 0,0
23.09.2018 02:00:00 11,8 11,4 9 5 - - O 1013,0 6 0,0
23.09.2018 01:00:00 12,1 11,6 9 5 - - O 1012,7 50 0,0
23.09.2018 00:00:00 13,4 12,9 8 4 - - ZZO 1012,2 10 0,0
22.09.2018 23:00:00 14,8 14,6 8 4 - - WZW 1011,7 9 0,0
22.09.2018 22:00:00 15,5 15,4 15 8 - - ZZW 1011,0 6 0,0
22.09.2018 21:00:00 15,9 15,9 15 8 - - ZZW 1010,6 2,6 0,4
22.09.2018 20:00:00 13,4 13,2 13 7 - - O 1009,9 1,9 1,0
22.09.2018 19:00:00 13,6 13,3 9 5 - - OZO 1009,6 2,6 1,6
22.09.2018 18:00:00 13,4 13,1 13 7 - - O 1009,4 3,3 1,0
22.09.2018 17:00:00 13,0 12,5 16 9 - - O 1009,4 2,6 1,2
22.09.2018 16:00:00 12,9 12,5 26 14 54 29 O 1009,7 2,5 1,0
22.09.2018 15:00:00 12,6 12,3 26 14 - - O 1010,8 5 2,2
22.09.2018 14:00:00 11,8 11,4 22 12 - - O 1012,9 4,6 1,8
22.09.2018 13:00:00 11,4 11,0 22 12 46 25 O 1014,5 3,3 5,0
22.09.2018 12:00:00 11,4 11,0 21 11 - - OZO 1016,1 2,2 3,6
22.09.2018 11:00:00 11,3 10,9 9 5 - - OZO 1017,8 2,3 1,2
22.09.2018 10:00:00 11,1 10,6 9 5 - - OZO 1018,6 6 1,4
22.09.2018 09:00:00 11,0 10,1 5 3 - - O 1019,2 18 0,6
22.09.2018 08:00:00 10,9 9,7 9 5 - - ZZO 1019,6 6 1,0
22.09.2018 07:00:00 11,5 10,1 5 3 - - W 1020,2 9 1,0
22.09.2018 06:00:00 12,3 9,8 8 4 - - W 1019,8 11 0,0
22.09.2018 05:00:00 13,0 9,7 15 8 - - W 1020,2 15 0,0
22.09.2018 04:00:00 12,5 10,1 13 7 - - WZW 1020,7 12 0,0
22.09.2018 03:00:00 12,3 9,1 9 5 - - WNW 1021,2 12 0,0
22.09.2018 02:00:00 12,8 9,6 16 9 - - WZW 1020,8 16 0,0
22.09.2018 01:00:00 12,8 9,1 21 11 - - WZW 1020,8 12 0,0
22.09.2018 00:00:00 12,7 8,6 21 11 - - WZW 1020,9 13 0,0
21.09.2018 23:00:00 12,8 8,7 22 12 - - WZW 1021,0 13 0,0
21.09.2018 22:00:00 12,7 8,4 22 12 - - W 1020,4 13 0,0
21.09.2018 21:00:00 12,8 9,0 21 11 - - WZW 1020,0 15 0,0
21.09.2018 20:00:00 12,9 8,6 24 13 - - W 1019,2 14 0,0
21.09.2018 19:00:00 13,1 8,3 18 10 - - W 1018,8 13 0,0
21.09.2018 18:00:00 13,8 7,3 29 16 50 27 W 1018,2 10 0,0
21.09.2018 17:00:00 14,0 7,9 26 14 48 26 WNW 1017,5 50 0,0
21.09.2018 16:00:00 16,1 6,9 34 18 57 31 W 1017,2 35 0,0
21.09.2018 15:00:00 14,1 8,3 39 21 65 35 W 1016,5 19 0,2
21.09.2018 14:00:00 16,6 7,5 41 22 59 32 W 1015,8 24 0,0
21.09.2018 13:00:00 15,2 9,0 34 18 57 31 W 1015,3 25 0,0
21.09.2018 12:00:00 14,9 8,1 35 19 55 30 W 1014,6 10 0,0
21.09.2018 11:00:00 14,5 8,6 29 16 48 26 W 1013,7 13 0,0
21.09.2018 10:00:00 11,5 7,4 37 20 55 30 W 1013,0 20 0,0
21.09.2018 09:00:00 10,8 8,2 24 13 - - W 1012,1 25 0,2
21.09.2018 08:00:00 10,4 7,2 26 14 - - W 1011,2 14 0,0
21.09.2018 07:00:00 9,5 6,8 16 9 - - W 1010,1 16 0,0
21.09.2018 06:00:00 10,1 7,3 21 11 - - WNW 1009,0 19 0,0
21.09.2018 05:00:00 10,2 7,4 24 13 - - WNW 1008,0 18 0,0
21.09.2018 04:00:00 10,9 8,7 28 15 48 26 WNW 1006,7 40 0,0
21.09.2018 03:00:00 11,4 9,8 26 14 - - WNW 1005,0 18 0,2
21.09.2018 02:00:00 12,5 11,2 22 12 46 25 WNW 1003,1 2,5 0,2
21.09.2018 01:00:00 13,1 11,1 34 18 57 31 W 1002,6 21 0,0
21.09.2018 00:00:00 13,8 11,8 35 19 67 36 W 1001,9 15 0,0
20.09.2018 23:00:00 15,8 15,3 44 24 85 46 WZW 1000,5 5 1,0
20.09.2018 22:00:00 16,4 16,2 70 38 96 52 ZZW 999,3 2,1 2,0
20.09.2018 21:00:00 16,5 16,2 63 34 85 46 ZZW 1001,0 2,0 5,2
20.09.2018 20:00:00 16,6 16,2 61 33 80 43 Z 1002,1 3,9 1,0
20.09.2018 19:00:00 16,6 16,1 61 33 76 41 Z 1003,6 3,3 0,2
20.09.2018 18:00:00 16,8 16,1 59 32 76 41 Z 1004,8 5 0,0
20.09.2018 17:00:00 16,8 16,0 54 29 72 39 Z 1006,1 6 0,0
20.09.2018 16:00:00 16,8 15,9 54 29 68 37 Z 1007,3 4,6 0,0
20.09.2018 15:00:00 17,2 16,2 52 28 70 38 Z 1008,3 5 0,0
20.09.2018 14:00:00 16,9 15,9 50 27 67 36 Z 1008,8 6 0,0
20.09.2018 13:00:00 17,2 15,9 54 29 67 36 Z 1009,3 5 0,0
20.09.2018 12:00:00 16,7 15,9 50 27 65 35 Z 1010,2 5 0,0
20.09.2018 11:00:00 16,5 15,8 48 26 61 33 Z 1010,6 6 0,0
20.09.2018 10:00:00 16,3 15,8 48 26 59 32 ZZW 1011,0 4,9 0,0
20.09.2018 09:00:00 16,2 15,8 44 24 59 32 Z 1011,3 4,5 0,0
20.09.2018 08:00:00 16,1 15,8 44 24 55 30 Z 1011,7 3,1 0,2

tt = temperatuur
td = dauwpunt
ff = windsnelheid
fx = windstoten
dd = windrichting
ppp = luchtdruk
vv = zicht
rr = neerslag

Weerstations in de omgeving